Aérodrome :
LOGIN :

S'inscrire | Disclaimer

   EN    FR    IT 

 










Légende :    VFR   VFR Marginal   IFR   IFR Intensif   IFR Très Intensif
Visi : 
Plafond : 
>= 8 km
>= 3000ft
5 à 8 km
1000 à 3000 ft
1500m à 5 km
500 à 1000 ft
800 à 1500m
200 à 500 ft
< 800m
< 200 ft
Symboles :   Orages  Brouillard  Fortes neiges  Fortes précipitations  Vent > 20 kt
SIGMETs :   Divers  Orages  Givrage  Turbulence  Onde Orograph.  Cendres Volcan.







- Altitude de l'aérodrome : 1521 ft
- Code IATA : NCY
- Voir les cartes d'approche


LFLP - Annecy

DERNIER METAR :
  • 160030Z AUTO 04005KT CAVOK 16/13 Q1019

METARs EXPIRÉS :
  • 160000Z AUTO 04004KT 360V070 CAVOK 16/13 Q1019
  • 152330Z AUTO 05005KT CAVOK 16/13 Q1019
  • 152300Z AUTO 04004KT CAVOK 17/13 Q1019
  • 152230Z AUTO 04006KT CAVOK 17/13 Q1019
  • 152200Z AUTO VRB03KT CAVOK 18/13 Q1019

TAF TAF LFLP
Valide du 15 à 15h jusqu'au 16 à 15h UTC


151400Z 1515/1615 02009KT 9999 FEW060
BECMG 1518/1520 VRB02KT CAVOK
BECMG 1610/1612 23008KT FEW055
Pas de NOTAMs connus pour ce terrain.



MET'MAP, la Météo Aéronautique d'un coup d'oeil ! - Copyright ORBIFLY Décembre 2007 - Disclaimer

ORBIFLY MET'MAP TEAM :

Programmation & Développement : Alexandra Zaïnal
Conception & Développement : Baudouin d'Aumeries
Co-Programmation & Développement : Marc-Olivier Méhu
Soutien technique & logistique : Manuel Goepfert

Contact : metmap@orbifly.com




SOURCES & CREDITS :

   NOAA